Preview of NWS' New Version of Forecast
This preview is not operational and should not be used for support decisions.

Regional Weather Roundup (RWR)

Issued by National Weather Service (NWS)

                            
000
ASUS46 KSEW 172110
RWRWA 

WASHINGTON REGIONAL WEATHER ROUNDUP
NATIONAL WEATHER SERVICE SEATTLE WA
200 PM PDT TUE SEP 17 2019

NOTE:"FAIR" INDICATES FEW OR NO CLOUDS BELOW 12,000 FEET WITH NO 
SIGNIFICANT WEATHER AND/OR OBSTRUCTIONS TO VISIBILITY.

WAZ507-509-555>559-172200-
SEATTLE, TACOMA, EVERETT, AND VICINITY
  
CITY           SKY/WX    TMP DP  RH WIND       PRES   REMARKS
EVERETT        CLOUDY    59  52  77 SE10G17   29.74S                  
BOEING FIELD   CLOUDY    60  54  80 S7        29.73S                  
RENTON         LGT RAIN  60  56  86 VRB5      29.72F                  
SEATAC AIRPORT CLOUDY    60  53  77 SE9G18    29.73F                  
JBLM-MCCHORD   CLOUDY    64  56  75 S24G31    29.72S                  
PUYALLUP       CLOUDY    66  50  55 S10G16    29.73S                  
BREMERTON      LGT RAIN  57  55  94 S10       29.72S                  
JBLM-FT LEWIS  PTSUNNY   65  58  78 S20G28    29.71R                  
TACOMA NARROWS CLOUDY    60  52  74 S14       29.72S                  
$$
 
WAZ001-503-506-510-514-515-172200-
NORTH INTERIOR
  
CITY           SKY/WX    TMP DP  RH WIND       PRES   REMARKS
BELLINGHAM     CLOUDY    63  48  58 S14G24    29.68S                  
FRIDAY HARBOR  CLOUDY    59  51  75 SE17G25   29.67F                  
EASTSOUND      LGT RAIN  61  54  77 S13G25    29.66R                  
PORT ANGELES   LGT RAIN  58  57  97 W3        29.65S                  
EDIZ HOOK      LGT RAIN  56  54  92 NW8       29.64S                  
PORT TOWNSEND  PTSUNNY   63  57  82 SE16G30   29.66F                  
NAS WHIDBEY    PTSUNNY   68  51  54 SE26G37   29.71S                  
ARLINGTON      CLOUDY    59  54  83 SE7       29.74R                  
BURLINGTON     CLOUDY    64  52  63 SE15G23   29.70S                  
$$
 
WAZ020-022-039-040-504-511-512-172200-
SOUTHWEST INTERIOR
  
CITY           SKY/WX    TMP DP  RH WIND       PRES   REMARKS
SHELTON        LGT RAIN  59  56  89 S8        29.69S                  
OLYMPIA        LGT RAIN  60  55  83 S15G25    29.72R                  
CHEHALIS       CLOUDY    63  55  77 S18G29    29.74S HAZE             
KELSO          RAIN      58  56  93 SE15G21   29.76S                  
VANCOUVER      CLOUDY    64  52  64 S12G22    29.78S                  
SCAPPOOSE, OR  LGT RAIN  58  56  93 S8        29.77F                  
PORTLAND, OR   PTSUNNY   66  53  63 S18G29    29.78F                  
$$
 
WAZ021-516-517-172200-
WASHINGTON COAST
  
CITY           SKY/WX    TMP DP  RH WIND       PRES   REMARKS
FORKS          CLOUDY    63  59  87 S9G17     29.63S                  
HOQUIAM        CLOUDY    63  60  90 S14       29.68S                  
ASTORIA, OR    CLOUDY    64  58  80 S14G22    29.70R                  
$$
 
WAZ019-023-024-040-567>569-172200-
CASCADE MOUNTAINS AND COLUMBIA GORGE
  
CITY           SKY/WX    TMP DP  RH WIND       PRES   REMARKS
STAMPEDE PASS  NOT AVBL                                               
TROUTDALE, OR  CLOUDY    62  55  77 E9        29.79F                  
HOOD RIVER, OR DRIZZLE   57  54  88 NW6       29.84S                  
THE DALLES, OR CLOUDY    64  51  62 VRB5      29.82F                  
$$

WAZ026-027-041>044-520-521-172200-
EAST SLOPES
  
CITY           SKY/WX    TMP DP  RH WIND       PRES   REMARKS
OMAK           LGT RAIN  57  50  77 S9G21     29.85R                  
WENATCHEE      CLOUDY    56  48  74 E10       29.82F                  
ELLENSBURG     CLOUDY    58  49  72 E9        29.83F                  
YAKIMA         CLOUDY    63  49  60 SE14      29.83F                  
SUNNYSIDE ARPT LGT RAIN  61  50  67 CALM      29.85F                  
YAKIMA TC      MOCLDY    61  47  62 S16       29.81F                  
$$

WAZ028-034-035-172200-
COLUMBIA BASIN
  
CITY           SKY/WX    TMP DP  RH WIND       PRES   REMARKS
EPHRATA        LGT RAIN  60  49  66 S10       29.85R                  
MOSES LAKE     LGT RAIN  63  47  55 S10       29.86S                  
PASCO          CLOUDY    72  39  30 S14       29.86S                  
RICHLAND ARPT  DRIZZLE   71  44  38 S9G17     29.85                   
HERMISTON, OR  CLOUDY    72  42  34 SW14      29.85S                  
$$

WAZ036>038-172200-
NORTHEAST WASHINGTON
  
CITY           SKY/WX    TMP DP  RH WIND       PRES   REMARKS
SPOKANE GEIGER PTSUNNY   61  39  44 SW13      29.91S                  
SPOKANE FELTS  PTSUNNY   64  39  39 S6        29.91F                  
FAIRCHILD AFB  CLOUDY    60  42  50 S15       29.91F                  
COEURDALENE,ID CLOUDY    62  39  42 S9G20     29.92F                  
DEER PARK      CLOUDY    61  42  49 SW10      29.91F                  
$$

WAZ029>033-172200-
SOUTHEAST WASHINGTON
  
CITY           SKY/WX    TMP DP  RH WIND       PRES   REMARKS
PULLMAN        MOSUNNY   66  37  34 S7        29.93F                  
LEWISTON, ID   MOSUNNY   72  38  29 N5        29.87F                  
WALLA WALLA    CLOUDY    71  43  36 SW12      29.87S                  
PENDLETON, OR  CLOUDY    67  39  35 SW17      29.87S                  
$$